Terminal Aerodrome Forecast
Issued by NWS

Home | Current Version | Previous Version | Text Only | Print | Product List | Glossary On
Versions: 1 2 3 4 5 6 7 8 9 10 11 12 13 14 15 16 17 18 19 20 21 22 23
000
FTUS45 KREV 031123
TAFTRK
TAF
KTRK 031123Z 0312/0412 00000KT P6SM VCSH SCT070 BKN120
     FM031500 VRB04KT P6SM SCT060 BKN110
     FM032000 22006KT P6SM SCT060 BKN120
     FM032200 25009G16KT P6SM VCTS SCT060CB BKN120
     FM040200 29007KT P6SM VCSH SCT050 BKN100
     FM040500 VRB04KT P6SM FEW050 SCT100 BKN150=

USA.gov is the U.S. government's official web portal to all federal, state and local government web resources and services.